[[{"header":{"parameterUnit":"m.s-1","parameterCategory":1,"la1":30.2991,"la2":30.254,"lo1":-89.0895,"lo2":-89.0444,"dy":0.0017,"dx":0.0017,"nx":28,"ny":28,"refTime":"2023-10-14T21:00:00:Z","depth":0,"parameterNumber":2,"parameterNumberName":"U-component_of_WINDS"},"data":[0,0,0,0,0,0,0,0,0,0,0,0,0,0,0,0,0,0,0,0,0,0,0,0,0,0,0,0,0,0,0,0,0,0,0,0,0,0,0,0,0,0,0,0,0,0,0,0,0,0,0,0,0,0,0,0,0,0,2.1809,2.1809,0,2.1807,2.1806,2.1806,2.1789,2.1789,2.1788,2.1788,2.1784,2.1785,2.1785,0,0,0,0,0,0,0,0,0,0,0,0,0,2.1801,2.1801,2.1809,2.1809,2.1809,2.1807,2.1806,2.1806,2.1789,2.1789,2.1788,2.1788,2.1784,2.1785,2.1785,0,0,0,0,0,0,0,0,0,0,0,0,0,2.1802,2.1801,2.1809,2.18,2.18,2.1807,2.1806,2.1806,2.1789,2.1789,2.1788,2.1788,2.1784,2.1784,2.1785,2.18,0,0,2.1786,2.1786,0,0,0,0,0,0,0,0,2.1802,2.1802,2.1802,2.1801,2.18,2.1798,2.1802,2.1804,2.179,2.1793,2.1788,2.1787,2.1789,2.1789,2.179,2.18,2.18,2.1786,2.1786,2.1787,2.1787,0,0,0,0,0,0,0,2.1802,2.1802,2.1808,2.1802,2.1801,2.1797,2.1796,2.1802,2.1795,2.1793,2.1792,2.1792,2.1789,2.179,2.179,2.1799,2.1786,2.1787,2.1787,2.1787,2.1823,2.1824,0,0,0,0,0,0,2.1803,2.1802,2.1808,2.1808,2.1799,2.1797,2.1797,2.1799,2.1795,2.1793,2.1792,2.1791,2.1789,2.1789,2.179,2.1808,2.1787,2.1787,2.1787,2.1822,2.1823,2.1824,0,0,0,0,0,0,2.1803,2.1803,2.1808,2.1805,2.1805,2.1798,2.1801,2.1799,2.18,2.1794,2.1793,2.1794,2.1789,2.1789,2.1798,2.1807,2.1787,2.1788,2.1822,2.1823,2.1824,2.1843,0,0,0,0,0,0,2.1802,2.1804,2.1809,2.1805,2.1805,2.1817,2.1801,2.18,2.1801,2.1799,2.1796,2.1795,2.1788,2.1797,2.1798,2.1807,2.1788,2.1821,2.1822,2.1823,2.1842,2.1845,2.1848,0,0,0,0,0,2.1802,2.1814,2.1809,2.181,2.1812,2.1817,2.1817,2.181,2.1802,2.1807,2.1804,2.1795,2.1806,2.1798,2.1799,2.1809,2.182,2.1822,2.1823,2.184,2.1844,2.1847,0,0,0,0,0,0,2.1818,2.1813,2.1808,2.1819,2.1819,2.1814,2.1821,2.1814,2.1816,2.1814,2.1805,2.1804,2.1815,2.1813,2.1804,2.1824,2.1812,2.1814,2.1824,2.1828,2.1831,2.1831,2.1788,0,0,0,0,0,2.1823,2.1828,2.1823,2.1833,2.1834,2.1828,2.1829,2.1824,2.1823,2.1823,2.182,2.1819,2.1823,2.1826,2.1828,2.1842,2.1841,2.1849,2.1852,2.1854,2.1856,2.1864,2.1867,2.1829,2.1829,2.1829,0,0,2.1833,2.1831,2.1834,2.1837,2.1836,2.1841,2.1827,2.1833,2.1837,2.1824,2.1832,2.183,2.1829,2.1841,2.1846,2.1839,2.1866,2.1856,2.1858,2.1858,2.1866,2.1869,2.1873,2.183,2.183,2.183,0,0,2.1854,2.1853,2.1861,2.1861,2.1861,2.1857,2.1859,2.1856,2.1855,2.1863,2.1854,2.1859,2.1865,2.1865,2.1866,2.1889,2.1881,2.189,2.1905,2.1913,2.1916,2.1919,2.1928,2.1931,2.1892,2.1892,2.1892,0,2.1866,2.1873,2.1866,2.1874,2.1875,2.1864,2.1874,2.1874,2.1874,2.1876,2.1869,2.1878,2.1876,2.1888,2.1894,2.1895,2.1898,2.189,2.1916,2.1919,2.1921,2.193,2.1933,2.1893,2.1893,2.1893,2.1893,0,2.1889,2.1895,2.1902,2.1903,2.1906,2.1914,2.1909,2.1912,2.1907,2.1904,2.1914,2.1912,2.1915,2.1918,2.1912,2.193,2.1926,2.1918,2.1906,2.1926,2.1934,2.1937,2.1895,2.1895,2.1894,2.1894,0,0,2.1918,2.1917,2.192,2.1921,2.192,2.1925,2.1933,2.1937,2.194,2.1941,2.1948,2.1955,2.1948,2.1949,2.1944,2.1951,2.1971,2.1943,2.1943,2.1948,2.1991,2.1996,2.2,2.1966,2.1967,2.1967,2.1991,0,2.1938,2.1952,2.1947,2.1961,2.1967,2.1958,2.1965,2.1966,2.1964,2.1969,2.1966,2.1971,2.1962,2.1963,2.1969,2.1967,2.1979,2.1965,2.1973,2.1973,2.1973,2.2004,2.201,2.2032,2.1994,2.1994,2.1995,0,2.1963,2.1966,2.1981,2.1981,2.1983,2.199,2.1994,2.1998,2.2,2.1998,2.2,2.1994,2.2003,2.1992,2.2004,2.1994,2.1997,2.1997,2.1998,2.1998,2.1984,2.2005,2.2039,2.2042,2.1999,2.1999,2.1998,0,2.1983,2.1991,2.2001,2.2002,2.2003,2.2008,2.2008,2.2009,2.2012,2.2016,2.2018,2.2022,2.2024,2.2028,2.2024,2.2016,2.2037,2.2025,2.2036,2.2036,2.204,2.204,2.2075,2.2042,2.2042,2.2042,2.2042,0,2.2005,2.2015,2.201,2.2017,2.2028,2.2022,2.2033,2.2033,2.2034,2.2041,2.2033,2.2039,2.2033,2.2039,2.2036,2.2047,2.2048,2.2047,2.2046,2.2048,2.2048,2.2049,2.2047,2.2043,2.2043,2.2043,2.2043,0,2.2029,2.2026,2.2037,2.2037,2.2038,2.2046,2.2046,2.2052,2.2051,2.2059,2.2061,2.2058,2.2065,2.2061,2.2068,2.2066,2.208,2.2077,2.208,2.2079,2.209,2.2089,2.2127,2.2132,2.2097,2.2097,2.2097,0,2.2043,2.2051,2.2052,2.2056,2.2057,2.2064,2.2067,2.2063,2.2067,2.207,2.2076,2.2083,2.2087,2.2099,2.2098,2.2103,2.21,2.2113,2.2101,2.2103,2.2101,2.21,2.2101,2.2115,2.2116,2.2116,2.2116,0,2.2069,2.2068,2.2073,2.2079,2.2084,2.2088,2.2091,2.2095,2.2091,2.2096,2.2103,2.2107,2.2115,2.2121,2.2127,2.2127,2.2121,2.2121,2.2123,2.2125,2.2126,2.2126,2.2086,2.2119,2.2119,2.2119,2.2119,2.2119,2.2089,2.2095,2.2098,2.2105,2.2107,2.2111,2.2117,2.2117,2.2123,2.2129,2.2127,2.2135,2.2138,2.2145,2.2146,2.2153,2.2148,2.2152,2.2153,2.2154,2.2156,2.2126,2.2154,2.2154,2.2154,2.2154,2.2154,0,2.2115,2.2116,2.2123,2.2128,2.2134,2.2129,2.2133,2.2138,2.2146,2.2149,2.2154,2.2163,2.217,2.217,2.2177,2.2183,2.218,2.2185,2.2184,2.2184,2.216,2.2157,2.2186,2.2186,2.2186,2.2186,2.2186,2.2186,2.2129,2.214,2.214,2.2152,2.2154,2.2163,2.2166,2.2169,2.2172,2.2183,2.2189,2.2189,2.2191,2.2198,2.2205,2.2205,2.2208,2.2213,2.2212,2.2189,2.2186,2.2183,2.218,2.2214,2.2214,2.2236,2.2236,2.2236]},{"header":{"parameterUnit":"m.s-1","parameterCategory":1,"la1":30.2991,"la2":30.254,"lo1":-89.0895,"lo2":-89.0444,"dy":0.0017,"dx":0.0017,"nx":28,"ny":28,"refTime":"2023-10-14T21:00:00:Z","depth":0,"parameterNumber":3,"parameterNumberName":"V-component_of_WINDS"},"data":[0,0,0,0,0,0,0,0,0,0,0,0,0,0,0,0,0,0,0,0,0,0,0,0,0,0,0,0,0,0,0,0,0,0,0,0,0,0,0,0,0,0,0,0,0,0,0,0,0,0,0,0,0,0,0,0,0,0,-6.3139,-6.314,0,-6.3209,-6.321,-6.3211,-6.3189,-6.3188,-6.3186,-6.3185,-6.3252,-6.3255,-6.3258,0,0,0,0,0,0,0,0,0,0,0,0,0,-6.2983,-6.2986,-6.3139,-6.314,-6.3141,-6.3209,-6.321,-6.3211,-6.3189,-6.3188,-6.3186,-6.3184,-6.3251,-6.3255,-6.3258,0,0,0,0,0,0,0,0,0,0,0,0,0,-6.3052,-6.2987,-6.3139,-6.3138,-6.3139,-6.3209,-6.321,-6.3211,-6.319,-6.3188,-6.3185,-6.3183,-6.325,-6.3254,-6.3259,-6.3332,0,0,-6.3273,-6.3275,0,0,0,0,0,0,0,0,-6.3048,-6.3057,-6.3137,-6.3138,-6.3139,-6.3188,-6.318,-6.3251,-6.319,-6.317,-6.3185,-6.3182,-6.3232,-6.3238,-6.3256,-6.3335,-6.3338,-6.3274,-6.3277,-6.3279,-6.328,0,0,0,0,0,0,0,-6.3043,-6.3054,-6.3166,-6.3139,-6.314,-6.3134,-6.3141,-6.3193,-6.3213,-6.3172,-6.3171,-6.3179,-6.3232,-6.3252,-6.3257,-6.3339,-6.3274,-6.3278,-6.3281,-6.3283,-6.3483,-6.3486,0,0,0,0,0,0,-6.3038,-6.305,-6.3164,-6.3169,-6.3087,-6.3138,-6.3146,-6.3175,-6.3212,-6.3216,-6.3181,-6.3178,-6.3245,-6.3252,-6.326,-6.3349,-6.3279,-6.3283,-6.3286,-6.3481,-6.3484,-6.3487,0,0,0,0,0,0,-6.3035,-6.3049,-6.3161,-6.3109,-6.3123,-6.3143,-6.3175,-6.3177,-6.3197,-6.3219,-6.3222,-6.3198,-6.3243,-6.3253,-6.3315,-6.3351,-6.3285,-6.3289,-6.3478,-6.3482,-6.3485,-6.3528,0,0,0,0,0,0,-6.3031,-6.3048,-6.3076,-6.311,-6.3126,-6.3216,-6.3177,-6.318,-6.3205,-6.3202,-6.3235,-6.3239,-6.3242,-6.3308,-6.332,-6.3356,-6.3293,-6.3475,-6.348,-6.3484,-6.3523,-6.3532,-6.354,0,0,0,0,0,-6.3025,-6.3084,-6.3078,-6.3091,-6.3162,-6.3219,-6.3228,-6.3232,-6.3208,-6.3237,-6.3252,-6.3238,-6.3345,-6.3315,-6.3327,-6.3366,-6.3472,-6.3478,-6.3484,-6.3519,-6.353,-6.354,0,0,0,0,0,0,-6.3051,-6.3088,-6.3082,-6.3153,-6.3183,-6.3215,-6.3251,-6.3243,-6.3279,-6.3275,-6.3277,-6.3285,-6.3349,-6.3363,-6.3328,-6.344,-6.3405,-6.3414,-6.3428,-6.3439,-6.3447,-6.3442,-6.3297,0,0,0,0,0,-6.3065,-6.3109,-6.3139,-6.3199,-6.3215,-6.323,-6.3255,-6.3256,-6.3287,-6.3299,-6.3318,-6.3347,-6.3387,-6.3414,-6.3452,-6.3525,-6.3532,-6.3558,-6.3567,-6.3574,-6.3581,-6.3622,-6.3634,-6.3505,-6.3505,-6.3505,0,0,-6.3094,-6.312,-6.3147,-6.3205,-6.3228,-6.3273,-6.3241,-6.3289,-6.3322,-6.3305,-6.3366,-6.3381,-6.3413,-6.3482,-6.3513,-6.3496,-6.3619,-6.3581,-6.3586,-6.359,-6.3629,-6.3642,-6.3653,-6.3509,-6.3508,-6.3508,0,0,-6.3171,-6.3195,-6.3249,-6.3274,-6.3311,-6.3321,-6.3334,-6.3368,-6.3378,-6.3439,-6.3428,-6.3467,-6.3536,-6.3561,-6.3582,-6.3671,-6.366,-6.3683,-6.3728,-6.3768,-6.3779,-6.3788,-6.382,-6.3832,-6.369,-6.3691,-6.3691,0,-6.3203,-6.3271,-6.3277,-6.3327,-6.3353,-6.3342,-6.3397,-6.342,-6.3467,-6.3484,-6.3466,-6.3554,-6.3575,-6.365,-6.3672,-6.3689,-6.3704,-6.3679,-6.3777,-6.3786,-6.3795,-6.3826,-6.3838,-6.3693,-6.3693,-6.3693,-6.3692,0,-6.3309,-6.3356,-6.3395,-6.3444,-6.3474,-6.3525,-6.3539,-6.3568,-6.3567,-6.358,-6.3643,-6.3668,-6.3712,-6.373,-6.3728,-6.3805,-6.3794,-6.3776,-6.3742,-6.381,-6.3839,-6.3851,-6.3697,-6.3696,-6.3695,-6.3695,0,0,-6.3402,-6.3455,-6.3469,-6.3492,-6.3533,-6.3569,-6.3621,-6.3667,-6.3693,-6.3725,-6.3769,-6.3829,-6.3814,-6.3838,-6.3839,-6.3875,-6.3945,-6.3853,-6.3853,-6.387,-6.4033,-6.4047,-6.406,-6.3938,-6.3941,-6.3942,-6.4031,0,-6.3483,-6.3576,-6.3584,-6.3667,-6.3712,-6.3704,-6.3749,-6.3778,-6.3792,-6.3831,-6.3845,-6.3889,-6.3864,-6.3879,-6.3914,-6.3929,-6.3978,-6.3923,-6.3978,-6.398,-6.3971,-6.4076,-6.409,-6.4172,-6.4042,-6.4044,-6.4045,0,-6.3589,-6.3629,-6.3717,-6.3755,-6.3773,-6.3814,-6.3858,-6.3895,-6.3929,-6.3936,-6.3965,-6.3962,-6.4015,-6.3979,-6.4052,-6.4015,-6.4038,-6.4049,-6.4052,-6.4058,-6.4017,-6.4085,-6.4198,-6.4211,-6.4063,-6.4062,-6.406,0,-6.365,-6.3725,-6.3788,-6.3808,-6.3852,-6.3881,-6.3901,-6.3932,-6.396,-6.3998,-6.4016,-6.4058,-6.4081,-6.4114,-6.4122,-6.4095,-6.4196,-6.416,-6.4203,-6.4203,-6.4224,-6.4223,-6.4344,-6.4238,-6.4238,-6.4238,-6.4238,0,-6.374,-6.3795,-6.3817,-6.3855,-6.3917,-6.3925,-6.3985,-6.4003,-6.4032,-6.4074,-6.4068,-6.4107,-6.4116,-6.4156,-6.4163,-6.4223,-6.4233,-6.4241,-6.4242,-6.4242,-6.4241,-6.4257,-6.4251,-6.4241,-6.4241,-6.424,-6.4239,0,-6.3818,-6.3835,-6.3903,-6.3941,-6.3952,-6.3996,-6.4027,-6.4064,-6.4078,-6.4131,-6.4144,-6.4165,-6.4213,-6.4225,-6.4281,-6.4285,-6.4357,-6.4352,-6.4346,-6.4346,-6.4389,-6.4385,-6.4525,-6.4544,-6.4426,-6.4427,-6.4428,0,-6.3874,-6.3917,-6.396,-6.3989,-6.4011,-6.4056,-6.4086,-6.4096,-6.4126,-6.4169,-6.4201,-6.4249,-6.4288,-6.4365,-6.4384,-6.4427,-6.4424,-6.447,-6.443,-6.4429,-6.4426,-6.4424,-6.4428,-6.4477,-6.4479,-6.448,-6.4481,0,-6.3973,-6.398,-6.4023,-6.407,-6.4106,-6.4143,-6.4178,-6.4201,-6.4216,-6.425,-6.4301,-6.4331,-6.439,-6.4438,-6.4482,-6.4501,-6.4494,-6.4493,-6.4506,-6.4506,-6.4501,-6.4506,-6.4368,-6.449,-6.4489,-6.4488,-6.4488,-6.4487,-6.4043,-6.4081,-6.4119,-6.4167,-6.4195,-6.4229,-6.4267,-6.4286,-6.4329,-6.438,-6.4383,-6.4437,-6.4471,-6.4531,-6.4552,-6.4595,-6.4581,-6.4598,-6.4603,-6.4607,-6.4612,-6.4495,-6.4602,-6.4602,-6.4602,-6.4602,-6.4602,0,-6.4143,-6.4167,-6.4212,-6.4263,-6.4301,-6.4293,-6.4332,-6.4365,-6.4414,-6.4447,-6.4486,-6.4545,-6.4591,-6.4616,-6.4662,-6.4691,-6.4689,-6.4703,-6.4701,-6.4706,-6.4621,-6.4606,-6.4704,-6.4704,-6.4704,-6.4704,-6.4704,-6.4704,-6.4199,-6.4264,-6.4276,-6.4355,-6.4378,-6.4434,-6.4457,-6.4488,-6.4515,-6.4581,-6.4621,-6.4637,-6.4667,-6.4716,-6.4758,-6.4764,-6.4782,-6.4798,-6.4802,-6.4722,-6.4712,-6.4702,-6.4688,-6.4801,-6.4801,-6.4883,-6.4884,-6.4885]}]]